, NM

(GMT )
Holloman AFB

Weather History for KHMN - June, 2014

Change the Weather History Date:

Sunday, June 8, 2014

  Actual Average Record
Temperature  
Mean Temperature 78 °F -  
Max Temperature 95 °F 89 °F 99 °F (2012)
Min Temperature 62 °F 59 °F 50 °F (2007)
Cooling Degree Days 14    
Growing Degree Days 28 (Base 50)    
Moisture  
Dew Point 36 °F    
Average Humidity 26    
Maximum Humidity 62    
Minimum Humidity 5    
Precipitation  
Precipitation 0.00 in - - ()
Sea Level Pressure  
Sea Level Pressure 29.67 in    
Wind  
Wind Speed 8 mph (SSW)    
Max Wind Speed 17 mph    
Max Gust Speed 24 mph    
Visibility 10 miles    
Events      
Averages and records for this station are not official NWS values.
T = Trace of Precipitation, MM = Missing Value Source: NWS Daily Summary

Daily Weather History Graph

Daily Weather History Graph

Search for Another Location

Airport or City:

Trip Planner

Search our weather history database for the weather conditions in past years. The results will help you decide how hot, cold, wet, or windy it might be!

Date:

Astronomy

Jun. 08, 2014 Rise Set
Actual Time 5:55 AM MDT 8:11 PM MDT
Civil Twilight 5:27 AM MDT 8:39 PM MDT
Nautical Twilight 4:52 AM MDT 9:14 PM MDT
Astronomical Twilight 4:14 AM MDT 9:52 PM MDT
Moon 3:45 PM MDT (6/8) 2:35 AM MDT (6/8)
Length of Visible Light 15h 12m
Length of Day
14h 15m
Waxing Gibbous, 77% of the Moon is Illuminated
Jun 8
Waxing Gibbous
Jun 12
Full
Jun 19
Last Quarter
Jun 27
New
Jul 5
First Quarter

Hourly Weather History & Observations

Time (MDT) Temp. Heat Index Dew Point Humidity Pressure Visibility Wind Dir Wind Speed Gust Speed Precip Events Conditions
12:58 AM 70.0 °F - 17.2 °F 13% 29.60 in 10.0 mi Calm Calm - N/A   Clear
1:58 AM 70.7 °F - 34.9 °F 27% 29.61 in 10.0 mi West 5.8 mph - N/A   Clear
2:58 AM 67.1 °F - 41.2 °F 39% 29.62 in 10.0 mi WNW 8.1 mph - N/A   Clear
3:58 AM 65.8 °F - 49.3 °F 55% 29.62 in 10.0 mi South 3.5 mph - N/A   Clear
4:58 AM 64.2 °F - 50.2 °F 60% 29.65 in 10.0 mi South 5.8 mph - N/A   Clear
5:58 AM 62.8 °F - 49.5 °F 62% 29.68 in 10.0 mi SE 6.9 mph - N/A   Clear
6:58 AM 64.9 °F - 47.1 °F 52% 29.71 in 10.0 mi SSE 9.2 mph - N/A   Clear
7:58 AM 68.9 °F - 53.2 °F 57% 29.73 in 10.0 mi SSE 9.2 mph - N/A   Clear
8:58 AM 75.2 °F - 54.0 °F 47% 29.74 in 10.0 mi South 8.1 mph - N/A   Clear
9:58 AM 80.4 °F 80.2 °F 53.8 °F 40% 29.74 in 10.0 mi Variable 6.9 mph - N/A   Clear
10:58 AM 84.4 °F 83.2 °F 55.6 °F 37% 29.73 in 10.0 mi South 8.1 mph - N/A   Clear
11:41 AM 86.0 °F 84.2 °F 53.6 °F 33% 29.93 in 10.0 mi South 16.1 mph 18.4 mph N/A   Clear
11:58 AM 87.3 °F 85.5 °F 54.7 °F 33% 29.72 in 10.0 mi SSE 13.8 mph 19.6 mph N/A   Partly Cloudy
12:11 PM 87.8 °F 85.7 °F 53.6 °F 31% 29.92 in 10.0 mi SSE 12.7 mph 23.0 mph N/A   Partly Cloudy
12:58 PM 89.2 °F - 52.0 °F 28% 29.68 in 10.0 mi South 12.7 mph 19.6 mph N/A   Scattered Clouds
1:58 PM 91.8 °F - 45.3 °F 20% 29.65 in 10.0 mi SSW 15.0 mph 21.9 mph N/A   Partly Cloudy
2:58 PM 92.1 °F - 39.7 °F 16% 29.62 in 10.0 mi SW 12.7 mph 17.3 mph N/A   Partly Cloudy
3:58 PM 93.9 °F - 25.5 °F 9% 29.60 in 10.0 mi WSW 13.8 mph 19.6 mph N/A   Clear
4:27 PM 95.0 °F - 26.6 °F 9% 29.80 in 10.0 mi West 16.1 mph 19.6 mph N/A   Clear
4:58 PM 95.2 °F - 26.2 °F 9% 29.57 in 10.0 mi WSW 12.7 mph 20.7 mph N/A   Clear
5:07 PM 95.0 °F - 23.0 °F 8% 29.79 in 10.0 mi SSW 17.3 mph 24.2 mph N/A   Clear
5:58 PM 95.4 °F - 19.0 °F 6% 29.56 in 10.0 mi SW 13.8 mph - N/A   Clear
6:58 PM 94.5 °F - 14.0 °F 5% 29.54 in 10.0 mi SSW 8.1 mph - N/A   Clear
7:58 PM 90.1 °F - 10.9 °F 5% 29.54 in 10.0 mi SW 6.9 mph - N/A   Clear
8:58 PM 81.7 °F - 8.8 °F 6% 29.57 in 10.0 mi SW 10.4 mph - N/A   Clear
9:58 PM 79.5 °F - 10.6 °F 7% 29.59 in 10.0 mi SSW 9.2 mph - N/A   Clear
10:58 PM 76.3 °F - 14.0 °F 9% 29.60 in 10.0 mi SSE 6.9 mph - N/A   Clear
11:58 PM 78.4 °F - 12.7 °F 8% 29.60 in 10.0 mi South 1.2 mph - N/A   Clear